Weather History for Rogers, AR

Change the Weather History Date:

Saturday, July 13, 2013

  Actual Average Record
Temperature  
Mean Temperature 76 °F -  
Max Temperature 87 °F 83 °F 93 °F (2012)
Min Temperature 66 °F 66 °F 57 °F (1999)
Cooling Degree Days 12    
Growing Degree Days 26 (Base 50)    
Moisture  
Dew Point 56 °F    
Average Humidity 49    
Maximum Humidity 73    
Minimum Humidity 32    
Precipitation  
Precipitation 0.00 in - - ()
Sea Level Pressure  
Sea Level Pressure 30.01 in    
Wind  
Wind Speed 7 mph (ESE)    
Max Wind Speed 10 mph    
Max Gust Speed -    
Visibility 10 miles    
Events      
Averages and records for this station are not official NWS values.
T = Trace of Precipitation, MM = Missing Value Source: NWS Daily Summary

Daily Weather History Graph

Daily Weather History Graph

Search for Another Location

Airport:

Trip Planner

Search our weather history database for the weather conditions in past years. The results will help you decide how hot, cold, wet, or windy it might be!

Date:

Astronomy

Jul. 13, 2013 Rise Set
Actual Time 6:09 AM CDT 8:35 PM CDT
Civil Twilight 5:39 AM CDT 9:04 PM CDT
Nautical Twilight 5:02 AM CDT 9:41 PM CDT
Astronomical Twilight 4:22 AM CDT 10:21 PM CDT
Moon 11:15 AM CDT (7/13) 11:27 PM CDT (7/13)
Length of Visible Light 15h 25m
Length of Day
14h 25m
Waxing Crescent, 26% of the Moon is Illuminated
Jul 13
Waxing Crescent
Jul 15
First Quarter
Jul 22
Full
Jul 29
Last Quarter
Aug 6
New

Hourly Weather History & Observations

Time (CDT) Temp. Heat Index Dew Point Humidity Pressure Visibility Wind Dir Wind Speed Gust Speed Precip Events Conditions
12:57 AM 73.0 °F - 61.0 °F 66% 30.01 in 10.0 mi ESE 5.8 mph - N/A   Clear
1:57 AM 70.0 °F - 60.1 °F 71% 30.01 in 10.0 mi East 4.6 mph - N/A   Clear
2:57 AM 70.0 °F - 61.0 °F 73% 30.01 in 10.0 mi East 5.8 mph - N/A   Clear
3:57 AM 69.1 °F - 55.9 °F 63% 30.02 in 10.0 mi ESE 8.1 mph - N/A   Clear
4:57 AM 66.9 °F - 55.9 °F 68% 30.03 in 10.0 mi ESE 6.9 mph - N/A   Clear
5:57 AM 66.9 °F - 57.0 °F 70% 30.03 in 10.0 mi ESE 8.1 mph - N/A   Clear
6:57 AM 68.0 °F - 55.0 °F 63% 30.04 in 10.0 mi ESE 8.1 mph - N/A   Clear
7:57 AM 71.1 °F - 55.0 °F 57% 30.04 in 10.0 mi SE 8.1 mph - N/A   Clear
8:57 AM 75.0 °F - 55.0 °F 50% 30.05 in 10.0 mi SE 9.2 mph - N/A   Clear
9:57 AM 78.1 °F - 55.9 °F 46% 30.06 in 10.0 mi SSE 5.8 mph - N/A   Clear
10:57 AM 81.0 °F 80.8 °F 55.9 °F 42% 30.06 in 10.0 mi Variable 5.8 mph - N/A   Clear
11:57 AM 84.9 °F 83.6 °F 55.0 °F 36% 30.04 in 10.0 mi Variable 3.5 mph - N/A   Clear
12:57 PM 84.9 °F 83.6 °F 55.0 °F 36% 30.04 in 10.0 mi East 5.8 mph - N/A   Clear
1:57 PM 86.0 °F 84.7 °F 55.9 °F 36% 30.01 in 10.0 mi East 10.4 mph - N/A   Clear
2:57 PM 86.0 °F 84.7 °F 55.9 °F 36% 30.00 in 10.0 mi Variable 5.8 mph - N/A   Clear
3:57 PM 87.1 °F 85.7 °F 55.9 °F 35% 29.99 in 10.0 mi SE 6.9 mph - N/A   Clear
4:57 PM 87.1 °F 85.1 °F 54.0 °F 32% 29.99 in 10.0 mi ENE 9.2 mph - N/A   Clear
5:57 PM 86.0 °F 84.0 °F 53.1 °F 32% 29.98 in 10.0 mi ENE 8.1 mph - N/A   Mostly Cloudy
6:57 PM 84.9 °F 83.6 °F 55.0 °F 36% 29.98 in 10.0 mi ENE 9.2 mph - N/A   Partly Cloudy
7:57 PM 81.0 °F 80.7 °F 55.0 °F 41% 29.98 in 10.0 mi ESE 4.6 mph - N/A   Clear
8:57 PM 80.1 °F 80.0 °F 54.0 °F 40% 29.98 in 10.0 mi East 6.9 mph - N/A   Clear
9:57 PM 78.1 °F - 55.9 °F 46% 29.97 in 10.0 mi SE 6.9 mph - N/A   Clear
10:57 PM 77.0 °F - 55.9 °F 48% 29.99 in 10.0 mi ESE 5.8 mph - N/A   Clear
11:57 PM 75.9 °F - 57.9 °F 54% 29.99 in 10.0 mi East 5.8 mph - N/A   Clear